Location: Newark
(47.5989°N, 4.6950°E)
Time: 15:16:45
(UTC+00:00)

Envisat - Pass Details

Date: 24 November 2019
Orbit: 764 x 766 km, 98.1° (Epoch: 15 December)

Event Time Altitude Azimuth Distance (km) Brightness Sun altitude
Rises 19:11:21 0° 219° (SW) 3,223 6.7 -32.4°
Reaches altitude 10° 19:15:01 10° 247° (WSW) 2,303 6.1 -33.0°
Maximum altitude 19:17:18 13° 274° (W) 2,106 6.0 -33.4°
Drops below altitude 10° 19:19:35 10° 301° (WNW) 2,311 6.2 -33.7°
Sets 19:23:18 0° 329° (NNW) 3,243 6.7 -34.4°
